Hourly Data Report for May 28, 2021

DRYDEN REGIONAL
ONTARIO
Current Station Operator: NAVCAN

49°49'39.000" N
92°44'39.000" W
412.70 m
6032125
71527
YHD

Download Data

Hourly Data (May 2021)
Hourly Data Report for May 28, 2021
TIME
LST
Temp Definition
°C
Dew Point Definition
°C
Rel Hum Definition
%
Precip. Amount Definition
mm

Wind Dir Definition
10's deg

Wind Spd Definition
km/h
Visibility Definition
km
Stn Press Definition
kPa
Hmdx Definition


Wind Chill Definition


Weather Definition


00:00 3.0 -0.6 77 0.0 7 5 16.1 97.67     LegendNANA
01:00 2.3 -0.5 82 0.0 7 4 16.1 97.69     LegendNANA
02:00 1.7 -0.4 86 0.0 6 5 16.1 97.68     LegendNANA
03:00 1.5 0.9 96 0.0 7 8 16.1 97.69     LegendNANA
04:00 1.1 0.7 97 0.0 8 5 16.1 97.67     LegendNANA
05:00 2.2 -0.3 83 0.0 11 8 16.1 97.72     LegendNANA
06:00 5.3 -3.0 55 0.0 LegendMM 8 16.1 97.75     LegendNANA
07:00 7.1 -1.3 55 0.0 18 13 16.1 97.76     LegendNANA
08:00 8.7 -1.5 49 0.0 18 13 16.1 97.76     LegendNANA
09:00 10.1 -1.8 43 0.0 18 11 16.1 97.74     LegendNANA
10:00 11.2 -3.8 35 0.0 18 15 16.1 97.70     LegendNANA
11:00 11.8 -4.3 32 0.0 19 15 16.1 97.66     LegendNANA
12:00 13.1 -2.9 33 0.0 14 9 16.1 97.59     LegendNANA
13:00 14.3 -3.9 28 0.0 22 17 16.1 97.52     LegendNANA
14:00 15.2 -4.1 26 0.0 19 11 16.1 97.47     LegendNANA
15:00 16.4 -4.3 24 0.0 LegendMM 17 16.1 97.41     LegendNANA
16:00 16.3 -4.8 23 0.0 16 15 16.1 97.36     LegendNANA
17:00 16.7 -5.5 21 0.0 20 22 16.1 97.31     LegendNANA
18:00 16.5 -4.8 23 0.0 17 17 16.1 97.27     LegendNANA
19:00 15.6 -4.3 25 0.0 21 15 16.1 97.25     LegendNANA
20:00 13.2 -3.1 32 0.0 22 13 16.1 97.24     LegendNANA
21:00 11.4 -2.8 37 0.0 20 11 16.1 97.25     LegendNANA
22:00 10.8 -1.7 42 0.0 18 11 16.1 97.26     LegendNANA
23:00 10.1 -1.6 44 0.0 18 13 16.1 97.25     LegendNANA

Notes on Data Quality.

Legend

  • E = Estimated
  • M = Missing
  • NA = Not Available*
  • [empty] = Indicates an unobserved value
Date modified: